EWL3MD LEPA-EDDG

Flight info

Callsign EWL3MD
Flight time N/A
Altitude 36000
Route MEROS N853 LUMAS DCT MAXIR DCT LUSOL DCT BODRU DCT OKTET DCT IRMAR DCT KINES DCT VANAS DCT MOBLO DCT UBIMA DCT GILIR DCT PENDU DCT IXILU DCT EPL DCT ROUSY DCT DIK T856 QATJA N853 HMM HMM1A
Aircraft A320/M-SDE3FGHIRWY/LB1

Departure

Time N/A
Airport Palma de Mallorca Airport (LEPA)

Arrival

Time 2026-05-05 21:19
Airport Münster Osnabrück Airport (EDDG)
Time Latitude Longitude Altitude Speed Heading
2026-05-05 20:56 50.87049 6.98545 26085 ft 452 kts 31°
2026-05-05 20:56 50.89400 7.00549 25611 ft 443 kts 31°
2026-05-05 20:56 50.92077 7.02836 25086 ft 435 kts 31°
2026-05-05 20:57 50.95576 7.05832 24430 ft 426 kts 31°
2026-05-05 20:57 50.97292 7.07302 24115 ft 421 kts 30°
2026-05-05 20:57 50.99851 7.09496 23653 ft 414 kts 30°
2026-05-05 20:57 51.02346 7.11638 23207 ft 408 kts 30°
2026-05-05 20:58 51.04821 7.13767 22772 ft 402 kts 30°
2026-05-05 20:58 51.07249 7.15857 22330 ft 396 kts 30°
2026-05-05 20:58 51.09638 7.17912 21863 ft 387 kts 29°
2026-05-05 20:58 51.11966 7.19917 21264 ft 376 kts 30°
2026-05-05 20:59 51.14227 7.21869 20707 ft 362 kts 30°
2026-05-05 20:59 51.16402 7.23751 20265 ft 354 kts 30°
2026-05-05 20:59 51.18536 7.25599 19887 ft 348 kts 30°
2026-05-05 20:59 51.20659 7.27441 19504 ft 344 kts 30°
2026-05-05 21:00 51.22726 7.29234 19115 ft 341 kts 30°
2026-05-05 21:00 51.24815 7.31051 18714 ft 338 kts 30°
2026-05-05 21:00 51.26832 7.32807 18283 ft 337 kts 30°
2026-05-05 21:00 51.28620 7.34362 17951 ft 335 kts 30°
2026-05-05 21:01 51.30727 7.36199 17558 ft 332 kts 30°
2026-05-05 21:01 51.32746 7.37958 17187 ft 329 kts 30°
2026-05-05 21:01 51.34391 7.39387 16854 ft 328 kts 29°
2026-05-05 21:01 51.36666 7.41189 15991 ft 340 kts 25°
2026-05-05 21:02 51.38849 7.42611 15140 ft 352 kts 20°
2026-05-05 21:02 51.41100 7.43805 14686 ft 349 kts 18°
2026-05-05 21:02 51.43243 7.44869 14394 ft 344 kts 17°
2026-05-05 21:02 51.45329 7.45900 14101 ft 339 kts 17°
2026-05-05 21:03 51.47567 7.47011 13816 ft 333 kts 17°
2026-05-05 21:03 51.49748 7.48096 13482 ft 328 kts 17°
2026-05-05 21:03 51.51890 7.49162 13165 ft 323 kts 17°
2026-05-05 21:03 51.53988 7.50209 12837 ft 318 kts 17°
2026-05-05 21:04 51.56095 7.51264 12510 ft 313 kts 17°
2026-05-05 21:04 51.58136 7.52288 12006 ft 312 kts 17°
2026-05-05 21:04 51.60161 7.53303 11392 ft 306 kts 17°
2026-05-05 21:04 51.62159 7.54307 10770 ft 299 kts 17°
2026-05-05 21:05 51.64081 7.55274 10282 ft 289 kts 17°
2026-05-05 21:05 51.65987 7.56234 10155 ft 288 kts 17°
2026-05-05 21:05 51.67917 7.57206 10069 ft 287 kts 17°
2026-05-05 21:05 51.69797 7.58179 9997 ft 287 kts 19°
2026-05-05 21:06 51.71653 7.59355 9927 ft 289 kts 24°
2026-05-05 21:06 51.73445 7.60742 9839 ft 289 kts 27°
2026-05-05 21:06 51.75242 7.62221 9582 ft 289 kts 27°
2026-05-05 21:06 51.77024 7.63706 9231 ft 287 kts 26°
2026-05-05 21:07 51.78765 7.65145 8895 ft 285 kts 27°
2026-05-05 21:07 51.80522 7.66591 8542 ft 283 kts 27°
2026-05-05 21:07 51.82232 7.68001 8285 ft 278 kts 27°
2026-05-05 21:07 51.83967 7.69269 7992 ft 274 kts 14°
2026-05-05 21:08 51.85840 7.69299 7679 ft 271 kts 346°
2026-05-05 21:08 51.87453 7.67999 7377 ft 269 kts 320°
2026-05-05 21:08 51.88741 7.65885 7029 ft 262 kts 313°
2026-05-05 21:08 51.89922 7.63765 6631 ft 255 kts 313°
2026-05-05 21:09 51.91048 7.61749 6295 ft 246 kts 314°
2026-05-05 21:09 51.92129 7.59849 5995 ft 235 kts 315°
2026-05-05 21:09 51.93181 7.58013 5724 ft 226 kts 315°
2026-05-05 21:09 51.94228 7.56203 5417 ft 216 kts 316°
2026-05-05 21:10 51.95158 7.54599 5253 ft 201 kts 317°
2026-05-05 21:10 51.96101 7.52976 5052 ft 197 kts 317°
2026-05-05 21:10 51.97041 7.51363 4982 ft 189 kts 317°
2026-05-05 21:10 51.97886 7.49808 4870 ft 180 kts 313°
2026-05-05 21:11 51.98652 7.48238 4707 ft 177 kts 313°
2026-05-05 21:11 51.99421 7.46699 4579 ft 176 kts 314°
2026-05-05 21:11 52.00205 7.45137 4421 ft 177 kts 315°
2026-05-05 21:11 52.00980 7.43591 4256 ft 178 kts 314°
2026-05-05 21:12 52.01759 7.42040 4111 ft 177 kts 315°
2026-05-05 21:12 52.02531 7.40513 3937 ft 177 kts 315°
2026-05-05 21:12 52.03356 7.39042 3783 ft 172 kts 331°
2026-05-05 21:12 52.04419 7.38446 3626 ft 160 kts
2026-05-05 21:13 52.05488 7.38773 3465 ft 152 kts 28°
2026-05-05 21:13 52.06434 7.39526 3359 ft 151 kts 31°
2026-05-05 21:13 52.07237 7.40465 3172 ft 136 kts 55°
2026-05-05 21:13 52.07692 7.41787 3068 ft 134 kts 66°
2026-05-05 21:14 52.08060 7.43161 2997 ft 133 kts 67°
2026-05-05 21:14 52.08411 7.44583 2995 ft 134 kts 69°
2026-05-05 21:14 52.08733 7.45985 2848 ft 134 kts 69°
2026-05-05 21:14 52.09045 7.47413 2668 ft 133 kts 70°
2026-05-05 21:15 52.09344 7.48825 2490 ft 133 kts 70°
2026-05-05 21:15 52.09639 7.50238 2313 ft 132 kts 70°
2026-05-05 21:15 52.09935 7.51665 2133 ft 132 kts 70°
2026-05-05 21:15 52.10228 7.53070 1960 ft 132 kts 70°
2026-05-05 21:16 52.10520 7.54477 1781 ft 131 kts 69°
2026-05-05 21:16 52.10815 7.55886 1598 ft 131 kts 69°
2026-05-05 21:16 52.11107 7.57277 1418 ft 130 kts 69°
2026-05-05 21:16 52.11396 7.58662 1247 ft 130 kts 69°
2026-05-05 21:17 52.11688 7.60048 1069 ft 129 kts 69°
2026-05-05 21:17 52.11987 7.61432 895 ft 129 kts 68°
2026-05-05 21:17 52.12271 7.62802 722 ft 129 kts 70°
2026-05-05 21:17 52.12545 7.64162 540 ft 129 kts 68°
2026-05-05 21:18 52.12842 7.65539 387 ft 129 kts 68°
2026-05-05 21:18 52.13133 7.66914 201 ft 131 kts 69°
2026-05-05 21:18 52.13409 7.68212 165 ft 108 kts 71°
2026-05-05 21:18 52.13597 7.69097 166 ft 58 kts 70°
2026-05-05 21:19 52.13675 7.69456 166 ft 9 kts 72°
2026-05-05 21:19 52.13682 7.69488 166 ft 5 kts 72°
2026-05-05 21:19 52.13703 7.69594 166 ft 14 kts 72°
2026-05-05 21:19 52.13737 7.69763 166 ft 17 kts 72°
2026-05-05 21:20 52.13760 7.69964 165 ft 18 kts 113°
2026-05-05 21:20 52.13651 7.70016 165 ft 18 kts 205°
2026-05-05 21:20 52.13580 7.69860 166 ft 17 kts 251°
2026-05-05 21:20 52.13541 7.69673 166 ft 17 kts 251°
2026-05-05 21:21 52.13501 7.69479 166 ft 18 kts 251°
2026-05-05 21:21 52.13461 7.69294 166 ft 15 kts 243°
2026-05-05 21:21 52.13387 7.69250 166 ft 11 kts 166°
2026-05-05 21:21 52.13309 7.69291 166 ft 12 kts 161°
2026-05-05 21:22 52.13232 7.69299 166 ft 12 kts 221°
2026-05-05 21:22 52.13214 7.69260 166 ft 0 kts 241°
2026-05-05 21:22 52.13213 7.69258 166 ft 0 kts 217°
2026-05-05 21:22 52.13200 7.69248 166 ft 3 kts 206°
2026-05-05 21:23 52.13172 7.69231 166 ft 5 kts 199°
2026-05-05 21:23 52.13145 7.69215 166 ft 2 kts 202°
2026-05-05 21:23 52.13136 7.69210 166 ft 0 kts 201°
2026-05-05 21:23 52.13129 7.69206 166 ft 2 kts 197°
2026-05-05 21:24 52.13127 7.69205 166 ft 0 kts 197°